Simultaneous Nadir Overpasses (SNOs) Predictions

Prediction of SNOs between NOAA-19 and TERRA Satellite Orbit:

Table of predicted SNOs for the next 14.0 days since TLE Epoch: 11/3/2018
Index Date (NOAA-19) Time (NOAA-19) Lat,Lon (NOAA-19) SZA (NOAA-19 ) Date (TERRA) Time (TERRA) Lat,Lon (TERRA) SZA (TERRA ) Distance(km) Time Diff (sec)
1 11/04/2018 06:55:32 77.65, 94.74 93.88 11/04/2018 06:55:32 77.66, 94.71 93.89 1.16 0
2 11/06/2018 12:29:06 -77.68,-168.72 85.43 11/06/2018 12:29:15 -77.66,-168.72 85.45 2.57 9
3 11/06/2018 13:19:54 77.25, 0.68 94.37 11/06/2018 13:18:48 77.33, -2.43 94.16 76.48 66
4 11/08/2018 18:02:36 77.70, -72.11 95.24 11/08/2018 18:02:56 77.69, -72.02 95.25 2.60 20
5 11/08/2018 18:53:36 -77.63, 95.51 84.79 11/08/2018 18:52:24 -77.65, 95.48 84.79 3.23 72
6 11/10/2018 23:36:08 -77.69, 24.61 84.13 11/10/2018 23:36:39 -77.70, 24.61 84.12 0.67 31
7 11/11/2018 00:27:07 77.67,-167.99 95.87 11/11/2018 00:26:06 77.64,-168.00 95.82 2.74 61
8 11/13/2018 05:09:39 77.71, 121.20 96.49 11/13/2018 05:10:21 77.69, 121.13 96.47 3.39 42
9 11/13/2018 06:00:39 -77.68, -71.39 83.52 11/13/2018 05:59:49 -77.66, -71.35 83.56 2.88 50
10 11/15/2018 10:43:10 -77.72,-142.11 82.94 11/15/2018 10:44:04 -77.71,-142.19 82.93 2.06 54




NCC Satellite Simultaneous Nadir Overpasses (SNOs) Prediction Service
